Location: B�rgermoos
(47.6500°N, 9.0667°E)
Time: 23:02:30
(UTC+00:00)

Tiros 1 - Pass Details

Date: 10 August 2021
Orbit: 630 x 663 km, 48.4° (Epoch: 19 September)

Event Time Altitude Azimuth Distance (km) Brightness Sun altitude
Rises 15:08:02 0° 248° (WSW) 2,989 11.6 34.8°
Reaches altitude 10° 15:10:23 10° 246° (WSW) 2,078 11.2 34.4°
Maximum altitude 15:15:10 75° 162° (SSE) 687 7.9 33.7°
Drops below altitude 10° 15:19:57 10° 78° (ENE) 2,072 9.3 32.9°
Sets 15:22:18 0° 77° (ENE) 2,980 10.0 32.5°
